Weather History for Ponca City, OK

Change the Weather History Date:

Tuesday, October 11, 2011

  Actual Average Record
Temperature  
Mean Temperature 64 °F -  
Max Temperature 77 °F 77 °F 94 °F (1962)
Min Temperature 50 °F 53 °F 37 °F (1948)
Degree Days  
Heating Degree Days 2    
Growing Degree Days 14 (Base 50)    
Moisture  
Dew Point 54 °F    
Average Humidity 74    
Maximum Humidity 94    
Minimum Humidity 48    
Precipitation  
Precipitation 0.00 in - - ()
Sea Level Pressure  
Sea Level Pressure 29.87 in    
Wind  
Wind Speed 4 mph (SSE)    
Max Wind Speed 13 mph    
Max Gust Speed 18 mph    
Visibility 8 miles    
Events      
Averages and records for this station are not official NWS values.
T = Trace of Precipitation, MM = Missing Value Source: NWS Daily Summary

Daily Weather History Graph

Daily Weather History Graph

Search for Another Location

Airport:

Trip Planner

Search our weather history database for the weather conditions in past years. The results will help you decide how hot, cold, wet, or windy it might be!

Date:

Astronomy

Oct. 11, 2011 Rise Set
Actual Time 7:32 AM CDT 6:57 PM CDT
Civil Twilight 7:06 AM CDT 7:23 PM CDT
Nautical Twilight 6:36 AM CDT 7:53 PM CDT
Astronomical Twilight 6:06 AM CDT 8:23 PM CDT
Moon 6:31 PM CDT (10/11) 7:10 AM CDT (10/11)
Length of Visible Light 12h 17m
Length of Day
11h 25m
Full, 100% of the Moon is Illuminated
Oct 11
Full
Oct 11
Full
Oct 19
Last Quarter
Oct 26
New
Nov 2
First Quarter

Hourly Weather History & Observations

Time (CDT) Temp. Dew Point Humidity Pressure Visibility Wind Dir Wind Speed Gust Speed Precip Events Conditions
12:53 AM 52.0 °F 50.0 °F 93% 29.96 in 4.0 mi Calm Calm - N/A   Clear
1:53 AM 55.9 °F 52.0 °F 87% 29.95 in 10.0 mi SSE 3.5 mph - N/A   Clear
2:53 AM 53.1 °F 51.1 °F 93% 29.94 in 9.0 mi Calm Calm - N/A   Clear
3:53 AM 52.0 °F 48.9 °F 89% 29.93 in 9.0 mi Calm Calm - N/A   Clear
4:53 AM 53.6 °F 51.8 °F 94% 29.94 in 9.0 mi SSE 3.5 mph - N/A   Clear
5:30 AM 50.0 °F 48.2 °F 94% 29.95 in 1.8 mi Calm Calm - N/A   Clear
5:53 AM 51.1 °F 48.9 °F 92% 29.94 in 1.0 mi Calm Calm - N/A   Clear
5:55 AM 50.0 °F 48.2 °F 94% 29.95 in 0.8 mi Calm Calm - N/A   Mist
6:53 AM 51.8 °F 50.0 °F 94% 29.95 in 1.2 mi SSE 3.5 mph - N/A   Partly Cloudy
6:56 AM 51.8 °F 50.0 °F 94% 29.95 in 3.0 mi SSE 3.5 mph - N/A   Partly Cloudy
7:53 AM 53.6 °F 51.8 °F 94% 29.95 in 6.0 mi Calm Calm - N/A   Clear
8:53 AM 57.2 °F 53.6 °F 88% 29.95 in 10.0 mi SSE 5.8 mph - N/A   Clear
9:53 AM 64.0 °F 55.9 °F 75% 29.93 in 10.0 mi SSE 6.9 mph - N/A   Clear
10:53 AM 68.0 °F 55.9 °F 65% 29.92 in 10.0 mi South 5.8 mph - N/A   Clear
11:53 AM 71.1 °F 57.0 °F 61% 29.90 in 10.0 mi Variable 6.9 mph - N/A   Clear
12:53 PM 73.0 °F 57.0 °F 57% 29.88 in 10.0 mi South 8.1 mph - N/A   Clear
1:53 PM 75.0 °F 55.9 °F 51% 29.83 in 10.0 mi South 10.4 mph 16.1 mph N/A   Clear
2:53 PM 75.9 °F 55.9 °F 50% 29.81 in 10.0 mi SSW 9.2 mph - N/A   Clear
3:53 PM 77.0 °F 55.9 °F 48% 29.78 in 10.0 mi SSE 12.7 mph 18.4 mph N/A   Clear
4:53 PM 75.9 °F 55.0 °F 48% 29.77 in 10.0 mi South 6.9 mph - N/A   Clear
5:53 PM 75.0 °F 54.0 °F 48% 29.77 in 10.0 mi South 6.9 mph - N/A   Clear
6:53 PM 71.1 °F 55.0 °F 57% 29.77 in 10.0 mi SSE 6.9 mph - N/A   Partly Cloudy
7:53 PM 70.0 °F 55.9 °F 61% 29.77 in 10.0 mi SSE 9.2 mph - N/A   Mostly Cloudy
8:53 PM 68.0 °F 55.9 °F 65% 29.75 in 10.0 mi ESE 11.5 mph - N/A   Clear
9:53 PM 68.0 °F 57.0 °F 68% 29.78 in 10.0 mi SE 6.9 mph - N/A   Mostly Cloudy
10:53 PM 66.9 °F 57.9 °F 73% 29.78 in 10.0 mi SE 3.5 mph - 0.00 in   Mostly Cloudy
11:53 PM 64.9 °F 57.0 °F 75% 29.76 in 10.0 mi SE 9.2 mph - N/A   Mostly Cloudy